Time,TemperatureF,DewpointF,PressureIn,WindDirection,WindDirectionDegrees,WindSpeedMPH,WindSpeedGustMPH,Humidity,HourlyPrecipIn,Conditions,Clouds,dailyrainin,SoftwareType,DateUTC
2013-02-20 00:05:00,39.7,11.5,29.64,West,270,2.0,3.0,31,0.00,,,0.00,meteohub,2013-02-20 08:05:00,
2013-02-20 00:10:00,39.7,11.5,29.65,West,270,2.0,3.0,31,0.00,,,0.00,meteohub,2013-02-20 08:10:00,
2013-02-20 00:15:00,39.6,11.5,29.65,West,270,3.0,3.0,31,0.00,,,0.00,meteohub,2013-02-20 08:15:00,
2013-02-20 00:20:00,39.6,11.5,29.65,NW,315,3.0,3.0,31,0.00,,,0.00,meteohub,2013-02-20 08:20:00,
2013-02-20 00:25:00,39.6,11.5,29.65,NW,315,2.0,3.0,31,0.00,,,0.00,meteohub,2013-02-20 08:25:00,
2013-02-20 00:30:00,39.6,11.5,29.65,NW,315,2.0,3.0,31,0.00,,,0.00,meteohub,2013-02-20 08:30:00,
2013-02-20 00:35:00,39.2,11.1,29.65,NW,315,2.0,3.0,31,0.00,,,0.00,meteohub,2013-02-20 08:35:00,
2013-02-20 00:40:00,39.0,10.9,29.65,NW,315,0.0,2.0,31,0.00,,,0.00,meteohub,2013-02-20 08:40:00,
2013-02-20 00:45:00,38.5,11.1,29.66,NW,315,0.0,2.0,32,0.00,,,0.00,meteohub,2013-02-20 08:45:00,
2013-02-20 00:50:00,38.1,10.2,29.66,West,270,2.0,2.0,31,0.00,,,0.00,meteohub,2013-02-20 08:50:00,
2013-02-20 00:55:00,37.8,10.6,29.66,West,270,0.0,2.0,32,0.00,,,0.00,meteohub,2013-02-20 08:55:00,
2013-02-20 01:01:00,37.4,10.2,29.66,West,270,1.0,2.0,32,0.00,,,0.00,meteohub,2013-02-20 09:01:00,
2013-02-20 01:06:00,37.2,7.2,29.66,West,270,2.0,2.0,28,0.00,,,0.00,meteohub,2013-02-20 09:06:00,
2013-02-20 01:11:00,37.2,7.9,29.66,West,270,3.0,4.0,29,0.00,,,0.00,meteohub,2013-02-20 09:11:00,
2013-02-20 01:16:00,37.4,11.7,29.66,West,270,2.0,4.0,34,0.00,,,0.00,meteohub,2013-02-20 09:16:00,
2013-02-20 01:21:00,37.6,11.7,29.66,West,270,2.0,4.0,34,0.00,,,0.00,meteohub,2013-02-20 09:21:00,
2013-02-20 01:26:00,37.6,11.7,29.66,West,270,2.0,3.0,34,0.00,,,0.00,meteohub,2013-02-20 09:26:00,
2013-02-20 01:31:00,37.6,12.4,29.66,West,270,0.0,2.0,35,0.00,,,0.00,meteohub,2013-02-20 09:31:00,
2013-02-20 01:36:00,37.4,12.2,29.67,SE,135,1.0,2.0,35,0.00,,,0.00,meteohub,2013-02-20 09:36:00,
2013-02-20 01:41:00,36.9,9.0,29.67,SE,135,1.0,2.0,31,0.00,,,0.00,meteohub,2013-02-20 09:41:00,
2013-02-20 01:46:00,36.1,7.7,29.67,SSE,158,2.0,2.0,30,0.00,,,0.00,meteohub,2013-02-20 09:46:00,
2013-02-20 01:51:00,36.0,8.2,29.67,South,180,1.0,2.0,31,0.00,,,0.00,meteohub,2013-02-20 09:51:00,
2013-02-20 01:56:00,36.0,8.2,29.67,South,180,1.0,2.0,31,0.00,,,0.00,meteohub,2013-02-20 09:56:00,
2013-02-20 02:02:00,36.0,9.0,29.67,South,180,0.0,2.0,32,0.00,,,0.00,meteohub,2013-02-20 10:02:00,
2013-02-20 02:07:00,36.0,9.0,29.68,West,270,2.0,2.0,32,0.00,,,0.00,meteohub,2013-02-20 10:07:00,
2013-02-20 02:12:00,36.3,9.3,29.67,SW,225,2.0,2.0,32,0.00,,,0.00,meteohub,2013-02-20 10:12:00,
2013-02-20 02:17:00,36.5,9.5,29.67,SW,225,2.0,2.0,32,0.00,,,0.00,meteohub,2013-02-20 10:17:00,
2013-02-20 02:22:00,36.5,9.5,29.68,SW,225,2.0,2.0,32,0.00,,,0.00,meteohub,2013-02-20 10:22:00,
2013-02-20 02:27:00,36.7,10.2,29.68,West,270,2.0,2.0,33,0.00,,,0.00,meteohub,2013-02-20 10:27:00,
2013-02-20 02:32:00,36.7,10.2,29.68,WSW,248,1.0,2.0,33,0.00,,,0.00,meteohub,2013-02-20 10:32:00,
2013-02-20 02:37:00,36.7,10.2,29.68,West,270,2.0,2.0,33,0.00,,,0.00,meteohub,2013-02-20 10:37:00,
2013-02-20 02:42:00,36.5,10.0,29.68,SW,225,2.0,2.0,33,0.00,,,0.00,meteohub,2013-02-20 10:42:00,
2013-02-20 02:47:00,36.5,10.8,29.68,SW,225,2.0,2.0,34,0.00,,,0.00,meteohub,2013-02-20 10:47:00,
2013-02-20 02:52:00,36.7,10.9,29.68,SW,225,1.0,2.0,34,0.00,,,0.00,meteohub,2013-02-20 10:52:00,
2013-02-20 02:57:00,36.5,10.8,29.69,West,270,2.0,2.0,34,0.00,,,0.00,meteohub,2013-02-20 10:57:00,
2013-02-20 03:02:00,36.5,10.8,29.69,West,270,2.0,2.0,34,0.00,,,0.00,meteohub,2013-02-20 11:02:00,
2013-02-20 03:07:00,36.5,11.5,29.68,West,270,2.0,2.0,35,0.00,,,0.00,meteohub,2013-02-20 11:07:00,
2013-02-20 03:12:00,36.9,11.8,29.68,SW,225,2.0,2.0,35,0.00,,,0.00,meteohub,2013-02-20 11:12:00,
2013-02-20 03:17:00,37.0,11.8,29.69,West,270,2.0,2.0,35,0.00,,,0.00,meteohub,2013-02-20 11:17:00,
2013-02-20 03:22:00,37.2,12.7,29.69,West,270,2.0,3.0,36,0.00,,,0.00,meteohub,2013-02-20 11:22:00,
2013-02-20 03:27:00,37.2,12.7,29.68,West,270,3.0,3.0,36,0.00,,,0.00,meteohub,2013-02-20 11:27:00,
2013-02-20 03:32:00,37.2,12.7,29.68,West,270,2.0,3.0,36,0.00,,,0.00,meteohub,2013-02-20 11:32:00,
2013-02-20 03:37:00,36.7,11.7,29.68,West,270,2.0,3.0,35,0.00,,,0.00,meteohub,2013-02-20 11:37:00,
2013-02-20 03:42:00,36.5,11.5,29.68,West,270,0.0,3.0,35,0.00,,,0.00,meteohub,2013-02-20 11:42:00,
2013-02-20 03:47:00,36.5,11.5,29.68,SW,225,1.0,2.0,35,0.00,,,0.00,meteohub,2013-02-20 11:47:00,
2013-02-20 03:52:00,36.5,11.5,29.69,South,180,1.0,2.0,35,0.00,,,0.00,meteohub,2013-02-20 11:52:00,
2013-02-20 03:57:00,36.3,11.3,29.69,West,270,2.0,2.0,35,0.00,,,0.00,meteohub,2013-02-20 11:57:00,
2013-02-20 04:02:00,36.3,11.3,29.69,WSW,248,1.0,2.0,35,0.00,,,0.00,meteohub,2013-02-20 12:02:00,
2013-02-20 04:07:00,36.3,11.3,29.69,WSW,248,1.0,2.0,35,0.00,,,0.00,meteohub,2013-02-20 12:07:00,
2013-02-20 04:12:00,36.1,11.1,29.70,SSE,158,2.0,2.0,35,0.00,,,0.00,meteohub,2013-02-20 12:12:00,
2013-02-20 04:17:00,36.1,11.1,29.70,West,270,2.0,3.0,35,0.00,,,0.00,meteohub,2013-02-20 12:17:00,
2013-02-20 04:22:00,36.1,11.1,29.70,South,180,1.0,3.0,35,0.00,,,0.00,meteohub,2013-02-20 12:22:00,
2013-02-20 04:27:00,36.0,10.9,29.70,SW,225,2.0,3.0,35,0.00,,,0.00,meteohub,2013-02-20 12:27:00,
2013-02-20 04:32:00,36.0,11.7,29.70,NW,315,2.0,3.0,36,0.00,,,0.00,meteohub,2013-02-20 12:32:00,
2013-02-20 04:37:00,36.1,11.8,29.70,West,270,2.0,3.0,36,0.00,,,0.00,meteohub,2013-02-20 12:37:00,
2013-02-20 04:42:00,36.3,11.8,29.70,SW,225,3.0,4.0,36,0.00,,,0.00,meteohub,2013-02-20 12:42:00,
2013-02-20 04:48:00,36.5,12.7,29.71,West,270,4.0,4.0,37,0.00,,,0.00,meteohub,2013-02-20 12:48:00,
2013-02-20 04:53:00,36.9,13.1,29.71,West,270,3.0,4.0,37,0.00,,,0.00,meteohub,2013-02-20 12:53:00,
2013-02-20 04:58:00,37.4,16.3,29.71,West,270,3.0,4.0,42,0.00,,,0.00,meteohub,2013-02-20 12:58:00,
2013-02-20 05:12:00,38.1,16.0,29.72,NW,315,3.0,4.0,40,0.00,,,0.00,meteohub,2013-02-20 13:12:00,
2013-02-20 05:17:00,38.3,15.4,29.72,West,270,3.0,4.0,39,0.00,,,0.00,meteohub,2013-02-20 13:17:00,
2013-02-20 05:22:00,38.7,15.8,29.72,West,270,2.0,4.0,39,0.00,,,0.00,meteohub,2013-02-20 13:22:00,
2013-02-20 05:27:00,38.7,15.3,29.72,SW,225,3.0,4.0,38,0.00,,,0.00,meteohub,2013-02-20 13:27:00,
2013-02-20 05:32:00,38.8,15.4,29.72,West,270,2.0,3.0,38,0.00,,,0.00,meteohub,2013-02-20 13:32:00,
2013-02-20 05:38:00,38.7,14.5,29.72,West,270,2.0,3.0,37,0.00,,,0.00,meteohub,2013-02-20 13:38:00,
2013-02-20 05:43:00,38.7,14.5,29.72,SW,225,2.0,3.0,37,0.00,,,0.00,meteohub,2013-02-20 13:43:00,
2013-02-20 05:48:00,38.5,14.5,29.72,West,270,2.0,3.0,37,0.00,,,0.00,meteohub,2013-02-20 13:48:00,
2013-02-20 05:53:00,38.3,14.4,29.72,West,270,4.0,4.0,37,0.00,,,0.00,meteohub,2013-02-20 13:53:00,
2013-02-20 05:58:00,38.3,14.4,29.73,West,270,1.0,4.0,37,0.00,,,0.00,meteohub,2013-02-20 13:58:00,
2013-02-20 06:03:00,38.3,14.4,29.73,West,270,2.0,4.0,37,0.00,,,0.00,meteohub,2013-02-20 14:03:00,
2013-02-20 06:08:00,38.1,14.2,29.73,West,270,2.0,4.0,37,0.00,,,0.00,meteohub,2013-02-20 14:08:00,
2013-02-20 06:13:00,38.1,14.2,29.73,West,270,2.0,2.0,37,0.00,,,0.00,meteohub,2013-02-20 14:13:00,
2013-02-20 06:18:00,38.1,14.2,29.73,SE,135,2.0,3.0,37,0.00,,,0.00,meteohub,2013-02-20 14:18:00,
2013-02-20 06:23:00,38.3,14.4,29.73,SW,225,0.0,3.0,37,0.00,,,0.00,meteohub,2013-02-20 14:23:00,
2013-02-20 06:28:00,38.1,14.2,29.73,West,270,2.0,3.0,37,0.00,,,0.00,meteohub,2013-02-20 14:28:00,
2013-02-20 06:33:00,37.9,14.0,29.73,West,270,1.0,2.0,37,0.00,,,0.00,meteohub,2013-02-20 14:33:00,
2013-02-20 06:39:00,37.6,13.6,29.73,SW,225,1.0,2.0,37,0.00,,,0.00,meteohub,2013-02-20 14:39:00,
2013-02-20 06:44:00,37.6,13.6,29.73,West,270,2.0,2.0,37,0.00,,,0.00,meteohub,2013-02-20 14:44:00,
2013-02-20 06:49:00,37.6,13.6,29.73,West,270,2.0,3.0,37,0.00,,,0.00,meteohub,2013-02-20 14:49:00,
2013-02-20 06:54:00,37.8,13.8,29.73,SW,225,2.0,3.0,37,0.00,,,0.00,meteohub,2013-02-20 14:54:00,
2013-02-20 06:59:00,37.8,13.8,29.74,SW,225,3.0,3.0,37,0.00,,,0.00,meteohub,2013-02-20 14:59:00,
2013-02-20 07:04:00,38.3,14.4,29.74,West,270,2.0,3.0,37,0.00,,,0.00,meteohub,2013-02-20 15:04:00,
2013-02-20 07:09:00,38.5,14.5,29.73,West,270,4.0,4.0,37,0.00,,,0.00,meteohub,2013-02-20 15:09:00,
2013-02-20 07:14:00,38.8,14.7,29.74,West,270,2.0,3.0,37,0.00,,,0.00,meteohub,2013-02-20 15:14:00,
2013-02-20 07:19:00,39.2,14.5,29.74,SW,225,2.0,4.0,36,0.00,,,0.00,meteohub,2013-02-20 15:19:00,
2013-02-20 07:24:00,39.6,14.7,29.74,SW,225,2.0,4.0,36,0.00,,,0.00,meteohub,2013-02-20 15:24:00,
2013-02-20 07:29:00,39.9,15.1,29.75,SW,225,4.0,4.0,36,0.00,,,0.00,meteohub,2013-02-20 15:29:00,
2013-02-20 07:34:00,40.6,15.8,29.75,West,270,4.0,4.0,36,0.00,,,0.00,meteohub,2013-02-20 15:34:00,
2013-02-20 07:40:00,41.4,15.8,29.75,West,270,4.0,5.0,35,0.00,,,0.00,meteohub,2013-02-20 15:40:00,
2013-02-20 07:45:00,41.9,16.2,29.75,West,270,4.0,7.0,35,0.00,,,0.00,meteohub,2013-02-20 15:45:00,
2013-02-20 07:50:00,42.6,16.2,29.75,SW,225,3.0,7.0,34,0.00,,,0.00,meteohub,2013-02-20 15:50:00,
2013-02-20 07:55:00,43.3,15.4,29.76,West,270,3.0,6.0,32,0.00,,,0.00,meteohub,2013-02-20 15:55:00,
2013-02-20 08:00:00,44.1,16.2,29.76,West,270,3.0,5.0,32,0.00,,,0.00,meteohub,2013-02-20 16:00:00,
2013-02-20 08:05:00,44.6,15.1,29.76,West,270,4.0,5.0,30,0.00,,,0.00,meteohub,2013-02-20 16:05:00,
2013-02-20 08:10:00,45.1,14.7,29.76,West,270,4.0,5.0,29,0.00,,,0.00,meteohub,2013-02-20 16:10:00,
2013-02-20 08:15:00,45.7,14.4,29.77,NW,315,8.0,8.0,28,0.00,,,0.00,meteohub,2013-02-20 16:15:00,
2013-02-20 08:20:00,45.7,14.4,29.77,West,270,6.0,9.0,28,0.00,,,0.00,meteohub,2013-02-20 16:20:00,
2013-02-20 08:25:00,46.6,16.9,29.77,West,270,8.0,9.0,30,0.00,,,0.00,meteohub,2013-02-20 16:25:00,
2013-02-20 08:30:00,47.1,16.5,29.77,NW,315,7.0,8.0,29,0.00,,,0.00,meteohub,2013-02-20 16:30:00,
2013-02-20 08:35:00,47.3,16.7,29.77,West,270,6.0,9.0,29,0.00,,,0.00,meteohub,2013-02-20 16:35:00,
2013-02-20 08:41:00,47.5,16.0,29.77,West,270,6.0,9.0,28,0.00,,,0.00,meteohub,2013-02-20 16:41:00,
2013-02-20 08:46:00,48.0,16.5,29.77,NW,315,8.0,9.0,28,0.00,,,0.00,meteohub,2013-02-20 16:46:00,
2013-02-20 08:51:00,48.2,15.8,29.77,West,270,6.0,8.0,27,0.00,,,0.00,meteohub,2013-02-20 16:51:00,
2013-02-20 08:56:00,48.7,16.2,29.78,West,270,6.0,8.0,27,0.00,,,0.00,meteohub,2013-02-20 16:56:00,
2013-02-20 09:01:00,49.1,16.5,29.78,West,270,8.0,8.0,27,0.00,,,0.00,meteohub,2013-02-20 17:01:00,
2013-02-20 09:06:00,49.1,16.5,29.78,West,270,6.0,8.0,27,0.00,,,0.00,meteohub,2013-02-20 17:06:00,
2013-02-20 09:11:00,49.1,16.5,29.78,SW,225,8.0,8.0,27,0.00,,,0.00,meteohub,2013-02-20 17:11:00,
2013-02-20 09:16:00,49.3,16.7,29.78,West,270,6.0,9.0,27,0.00,,,0.00,meteohub,2013-02-20 17:16:00,
2013-02-20 09:21:00,49.5,16.9,29.78,West,270,7.0,9.0,27,0.00,,,0.00,meteohub,2013-02-20 17:21:00,
2013-02-20 09:26:00,49.6,17.1,29.79,West,270,6.0,9.0,27,0.00,,,0.00,meteohub,2013-02-20 17:26:00,
2013-02-20 09:31:00,49.6,17.1,29.78,West,270,8.0,8.0,27,0.00,,,0.00,meteohub,2013-02-20 17:31:00,
2013-02-20 09:36:00,49.5,16.9,29.79,West,270,8.0,8.0,27,0.00,,,0.00,meteohub,2013-02-20 17:36:00,
2013-02-20 09:42:00,49.6,17.1,29.79,West,270,4.0,8.0,27,0.00,,,0.00,meteohub,2013-02-20 17:42:00,
2013-02-20 09:47:00,50.2,18.3,29.79,West,270,8.0,8.0,28,0.00,,,0.00,meteohub,2013-02-20 17:47:00,
2013-02-20 09:52:00,50.4,18.5,29.79,NW,315,4.0,8.0,28,0.00,,,0.00,meteohub,2013-02-20 17:52:00,
2013-02-20 09:57:00,50.7,18.0,29.79,West,270,7.0,8.0,27,0.00,,,0.00,meteohub,2013-02-20 17:57:00,
2013-02-20 10:02:00,51.1,18.3,29.79,West,270,7.0,8.0,27,0.00,,,0.00,meteohub,2013-02-20 18:02:00,
2013-02-20 10:07:00,51.1,18.3,29.80,NW,315,4.0,7.0,27,0.00,,,0.00,meteohub,2013-02-20 18:07:00,
2013-02-20 10:12:00,51.3,18.3,29.80,West,270,4.0,8.0,27,0.00,,,0.00,meteohub,2013-02-20 18:12:00,
2013-02-20 10:17:00,51.3,18.3,29.80,North,0,5.0,8.0,27,0.00,,,0.00,meteohub,2013-02-20 18:17:00,
2013-02-20 10:22:00,51.4,18.5,29.80,West,270,6.0,8.0,27,0.00,,,0.00,meteohub,2013-02-20 18:22:00,
2013-02-20 10:27:00,51.8,17.1,29.80,West,270,6.0,9.0,25,0.00,,,0.00,meteohub,2013-02-20 18:27:00,
2013-02-20 10:32:00,51.8,17.1,29.81,West,270,7.0,9.0,25,0.00,,,0.00,meteohub,2013-02-20 18:32:00,
2013-02-20 10:37:00,52.0,17.2,29.80,West,270,8.0,9.0,25,0.00,,,0.00,meteohub,2013-02-20 18:37:00,
2013-02-20 10:42:00,52.2,17.4,29.81,SW,225,11.0,11.0,25,0.00,,,0.00,meteohub,2013-02-20 18:42:00,
2013-02-20 10:47:00,51.8,17.1,29.81,NW,315,7.0,11.0,25,0.00,,,0.00,meteohub,2013-02-20 18:47:00,
2013-02-20 10:52:00,51.6,17.8,29.80,NW,315,9.0,11.0,26,0.00,,,0.00,meteohub,2013-02-20 18:52:00,
2013-02-20 10:57:00,51.6,17.8,29.81,NW,315,9.0,11.0,26,0.00,,,0.00,meteohub,2013-02-20 18:57:00,
2013-02-20 11:02:00,51.4,17.6,29.81,NW,315,9.0,11.0,26,0.00,,,0.00,meteohub,2013-02-20 19:02:00,
2013-02-20 11:07:00,51.6,16.9,29.81,West,270,8.0,14.0,25,0.00,,,0.00,meteohub,2013-02-20 19:07:00,
2013-02-20 11:12:00,51.6,16.0,29.80,West,270,11.0,16.0,24,0.00,,,0.00,meteohub,2013-02-20 19:12:00,
2013-02-20 11:17:00,51.6,16.0,29.81,NW,315,11.0,16.0,24,0.00,,,0.00,meteohub,2013-02-20 19:17:00,
2013-02-20 11:22:00,51.6,16.0,29.80,West,270,12.0,16.0,24,0.00,,,0.00,meteohub,2013-02-20 19:22:00,
2013-02-20 11:27:00,51.4,15.8,29.80,NW,315,12.0,14.0,24,0.00,,,0.00,meteohub,2013-02-20 19:27:00,
2013-02-20 11:32:00,51.4,15.8,29.80,NW,315,11.0,12.0,24,0.00,,,0.00,meteohub,2013-02-20 19:32:00,
2013-02-20 11:37:00,51.8,15.1,29.81,West,270,11.0,13.0,23,0.00,,,0.00,meteohub,2013-02-20 19:37:00,
2013-02-20 11:42:00,51.8,15.1,29.81,West,270,8.0,13.0,23,0.00,,,0.00,meteohub,2013-02-20 19:42:00,
2013-02-20 11:47:00,51.6,16.0,29.81,West,270,12.0,15.0,24,0.00,,,0.00,meteohub,2013-02-20 19:47:00,
2013-02-20 11:52:00,51.8,15.1,29.81,NW,315,9.0,15.0,23,0.00,,,0.00,meteohub,2013-02-20 19:52:00,
2013-02-20 11:57:00,52.0,15.3,29.81,West,270,12.0,15.0,23,0.00,,,0.00,meteohub,2013-02-20 19:57:00,
2013-02-20 12:02:00,52.0,15.3,29.81,NW,315,8.0,15.0,23,0.00,,,0.00,meteohub,2013-02-20 20:02:00,
2013-02-20 12:07:00,52.3,15.6,29.81,West,270,15.0,15.0,23,0.00,,,0.00,meteohub,2013-02-20 20:07:00,
2013-02-20 12:12:00,52.5,15.8,29.81,NW,315,11.0,15.0,23,0.00,,,0.00,meteohub,2013-02-20 20:12:00,
2013-02-20 12:17:00,52.7,16.0,29.81,SW,225,12.0,15.0,23,0.00,,,0.00,meteohub,2013-02-20 20:17:00,
2013-02-20 12:22:00,52.5,15.8,29.81,West,270,9.0,15.0,23,0.00,,,0.00,meteohub,2013-02-20 20:22:00,
2013-02-20 12:27:00,52.7,16.0,29.80,West,270,10.0,15.0,23,0.00,,,0.00,meteohub,2013-02-20 20:27:00,
2013-02-20 12:32:00,52.7,16.0,29.80,NW,315,9.0,15.0,23,0.00,,,0.00,meteohub,2013-02-20 20:32:00,
2013-02-20 12:37:00,53.1,15.3,29.80,West,270,12.0,15.0,22,0.00,,,0.00,meteohub,2013-02-20 20:37:00,
2013-02-20 12:42:00,53.2,15.4,29.80,North,0,15.0,15.0,22,0.00,,,0.00,meteohub,2013-02-20 20:42:00,
2013-02-20 12:47:00,53.4,15.4,29.80,NW,315,14.0,15.0,22,0.00,,,0.00,meteohub,2013-02-20 20:47:00,
2013-02-20 12:52:00,53.2,16.3,29.80,West,270,11.0,15.0,23,0.00,,,0.00,meteohub,2013-02-20 20:52:00,
2013-02-20 12:57:00,53.2,16.3,29.80,NW,315,14.0,16.0,23,0.00,,,0.00,meteohub,2013-02-20 20:57:00,
2013-02-20 13:02:00,53.1,16.2,29.80,NW,315,15.0,16.0,23,0.00,,,0.00,meteohub,2013-02-20 21:02:00,
2013-02-20 13:07:00,52.9,16.2,29.80,NW,315,11.0,18.0,23,0.00,,,0.00,meteohub,2013-02-20 21:07:00,
2013-02-20 13:12:00,53.4,16.5,29.80,West,270,16.0,18.0,23,0.00,,,0.00,meteohub,2013-02-20 21:12:00,
2013-02-20 13:17:00,53.2,16.3,29.80,West,270,20.0,20.0,23,0.00,,,0.00,meteohub,2013-02-20 21:17:00,
2013-02-20 13:22:00,53.6,15.6,29.80,West,270,13.0,20.0,22,0.00,,,0.00,meteohub,2013-02-20 21:22:00,
2013-02-20 13:27:00,53.8,15.8,29.80,West,270,19.0,20.0,22,0.00,,,0.00,meteohub,2013-02-20 21:27:00,
2013-02-20 13:32:00,52.9,16.2,29.80,NW,315,21.0,21.0,23,0.00,,,0.00,meteohub,2013-02-20 21:32:00,
2013-02-20 13:37:00,52.9,16.2,29.80,West,270,20.0,22.0,23,0.00,,,0.00,meteohub,2013-02-20 21:37:00,
2013-02-20 13:42:00,52.7,16.0,29.80,West,270,17.0,22.0,23,0.00,,,0.00,meteohub,2013-02-20 21:42:00,
2013-02-20 13:47:00,52.9,16.2,29.80,West,270,11.0,22.0,23,0.00,,,0.00,meteohub,2013-02-20 21:47:00,
2013-02-20 13:53:00,52.9,16.2,29.79,NW,315,15.0,21.0,23,0.00,,,0.00,meteohub,2013-02-20 21:53:00,
2013-02-20 13:58:00,52.9,15.1,29.80,West,270,11.0,22.0,22,0.00,,,0.00,meteohub,2013-02-20 21:58:00,
2013-02-20 14:03:00,52.9,15.1,29.79,NW,315,14.0,22.0,22,0.00,,,0.00,meteohub,2013-02-20 22:03:00,
2013-02-20 14:08:00,52.9,15.1,29.80,NW,315,17.0,22.0,22,0.00,,,0.00,meteohub,2013-02-20 22:08:00,
2013-02-20 14:13:00,53.1,15.3,29.79,North,0,10.0,21.0,22,0.00,,,0.00,meteohub,2013-02-20 22:13:00,
2013-02-20 14:18:00,52.9,15.1,29.80,NW,315,20.0,20.0,22,0.00,,,0.00,meteohub,2013-02-20 22:18:00,
2013-02-20 14:23:00,52.7,16.0,29.79,West,270,17.0,20.0,23,0.00,,,0.00,meteohub,2013-02-20 22:23:00,
2013-02-20 14:28:00,52.9,16.2,29.79,NW,315,13.0,21.0,23,0.00,,,0.00,meteohub,2013-02-20 22:28:00,
2013-02-20 14:33:00,52.3,15.6,29.79,WNW,293,19.0,21.0,23,0.00,,,0.00,meteohub,2013-02-20 22:33:00,
2013-02-20 14:38:00,52.0,15.3,29.79,West,270,17.0,21.0,23,0.00,,,0.00,meteohub,2013-02-20 22:38:00,
2013-02-20 14:44:00,52.2,15.4,29.79,West,270,19.0,21.0,23,0.00,,,0.00,meteohub,2013-02-20 22:44:00,
2013-02-20 14:49:00,52.2,15.4,29.79,West,270,17.0,21.0,23,0.00,,,0.00,meteohub,2013-02-20 22:49:00,
2013-02-20 14:54:00,52.5,14.7,29.79,NW,315,15.0,21.0,22,0.00,,,0.00,meteohub,2013-02-20 22:54:00,
2013-02-20 14:59:00,52.7,14.9,29.79,NW,315,17.0,19.0,22,0.00,,,0.00,meteohub,2013-02-20 22:59:00,
2013-02-20 15:04:00,52.3,14.5,29.79,NW,315,12.0,18.0,22,0.00,,,0.00,meteohub,2013-02-20 23:04:00,
2013-02-20 15:09:00,52.2,15.4,29.79,NW,315,16.0,21.0,23,0.00,,,0.00,meteohub,2013-02-20 23:09:00,
2013-02-20 15:14:00,52.0,15.3,29.79,North,0,17.0,21.0,23,0.00,,,0.00,meteohub,2013-02-20 23:14:00,
2013-02-20 15:19:00,52.2,15.4,29.79,NW,315,13.0,21.0,23,0.00,,,0.00,meteohub,2013-02-20 23:19:00,
2013-02-20 15:24:00,52.2,15.4,29.79,West,270,14.0,21.0,23,0.00,,,0.00,meteohub,2013-02-20 23:24:00,
2013-02-20 15:29:00,52.2,15.4,29.80,West,270,11.0,20.0,23,0.00,,,0.00,meteohub,2013-02-20 23:29:00,
2013-02-20 15:34:00,52.3,15.6,29.80,NW,315,20.0,20.0,23,0.00,,,0.00,meteohub,2013-02-20 23:34:00,
2013-02-20 15:39:00,52.2,15.4,29.80,NW,315,20.0,20.0,23,0.00,,,0.00,meteohub,2013-02-20 23:39:00,
2013-02-20 15:44:00,52.2,15.4,29.80,NW,315,12.0,20.0,23,0.00,,,0.00,meteohub,2013-02-20 23:44:00,
2013-02-20 15:50:00,52.3,15.6,29.80,West,270,11.0,20.0,23,0.00,,,0.00,meteohub,2013-02-20 23:50:00,
2013-02-20 15:55:00,52.5,15.8,29.80,West,270,10.0,20.0,23,0.00,,,0.00,meteohub,2013-02-20 23:55:00,
2013-02-20 16:00:00,52.7,16.0,29.80,West,270,7.0,17.0,23,0.00,,,0.00,meteohub,2013-02-21 00:00:00,
2013-02-20 16:05:00,52.7,16.0,29.80,West,270,11.0,13.0,23,0.00,,,0.00,meteohub,2013-02-21 00:05:00,
2013-02-20 16:10:00,52.5,15.8,29.80,NW,315,15.0,15.0,23,0.00,,,0.00,meteohub,2013-02-21 00:10:00,
2013-02-20 16:15:00,52.3,14.5,29.81,West,270,13.0,15.0,22,0.00,,,0.00,meteohub,2013-02-21 00:15:00,
2013-02-20 16:20:00,52.2,15.4,29.80,NW,315,14.0,15.0,23,0.00,,,0.00,meteohub,2013-02-21 00:20:00,
2013-02-20 16:25:00,52.2,15.4,29.81,West,270,14.0,17.0,23,0.00,,,0.00,meteohub,2013-02-21 00:25:00,
2013-02-20 16:30:00,52.0,15.3,29.81,West,270,17.0,17.0,23,0.00,,,0.00,meteohub,2013-02-21 00:30:00,
2013-02-20 16:35:00,51.8,15.1,29.80,West,270,20.0,20.0,23,0.00,,,0.00,meteohub,2013-02-21 00:35:00,
2013-02-20 16:40:00,51.4,15.8,29.80,West,270,16.0,20.0,24,0.00,,,0.00,meteohub,2013-02-21 00:40:00,
2013-02-20 16:45:00,51.1,15.4,29.80,NW,315,17.0,21.0,24,0.00,,,0.00,meteohub,2013-02-21 00:45:00,
2013-02-20 16:51:00,51.1,15.4,29.80,NW,315,17.0,21.0,24,0.00,,,0.00,meteohub,2013-02-21 00:51:00,
2013-02-20 16:56:00,50.5,15.1,29.80,West,270,15.0,23.0,24,0.00,,,0.00,meteohub,2013-02-21 00:56:00,
2013-02-20 17:01:00,50.5,15.1,29.81,WNW,293,19.0,23.0,24,0.00,,,0.00,meteohub,2013-02-21 01:01:00,
2013-02-20 17:06:00,50.5,15.1,29.80,NW,315,17.0,23.0,24,0.00,,,0.00,meteohub,2013-02-21 01:06:00,
2013-02-20 17:11:00,50.5,15.1,29.81,North,0,15.0,21.0,24,0.00,,,0.00,meteohub,2013-02-21 01:11:00,
2013-02-20 17:16:00,50.4,15.8,29.81,NW,315,21.0,21.0,25,0.00,,,0.00,meteohub,2013-02-21 01:16:00,
2013-02-20 17:21:00,50.0,14.5,29.81,West,270,17.0,23.0,24,0.00,,,0.00,meteohub,2013-02-21 01:21:00,
2013-02-20 17:26:00,49.8,16.3,29.81,West,270,12.0,27.0,26,0.00,,,0.00,meteohub,2013-02-21 01:26:00,
2013-02-20 17:31:00,49.6,16.2,29.81,West,270,12.0,27.0,26,0.00,,,0.00,meteohub,2013-02-21 01:31:00,
2013-02-20 17:36:00,49.5,16.9,29.81,SW,225,11.0,27.0,27,0.00,,,0.00,meteohub,2013-02-21 01:36:00,
2013-02-20 17:41:00,49.3,16.7,29.81,NW,315,14.0,20.0,27,0.00,,,0.00,meteohub,2013-02-21 01:41:00,
2013-02-20 17:47:00,49.3,16.7,29.82,NW,315,14.0,16.0,27,0.00,,,0.00,meteohub,2013-02-21 01:47:00,
2013-02-20 17:52:00,49.1,16.5,29.82,West,270,15.0,21.0,27,0.00,,,0.00,meteohub,2013-02-21 01:52:00,
2013-02-20 17:57:00,49.1,16.5,29.82,NW,315,15.0,21.0,27,0.00,,,0.00,meteohub,2013-02-21 01:57:00,
2013-02-20 18:02:00,48.9,16.3,29.82,NW,315,15.0,21.0,27,0.00,,,0.00,meteohub,2013-02-21 02:02:00,
2013-02-20 18:07:00,48.9,16.3,29.82,NW,315,15.0,21.0,27,0.00,,,0.00,meteohub,2013-02-21 02:07:00,
2013-02-20 18:12:00,48.9,17.2,29.82,West,270,11.0,21.0,28,0.00,,,0.00,meteohub,2013-02-21 02:12:00,
2013-02-20 18:17:00,48.7,18.0,29.82,West,270,13.0,19.0,29,0.00,,,0.00,meteohub,2013-02-21 02:17:00,
2013-02-20 18:22:00,48.7,18.0,29.82,NW,315,13.0,19.0,29,0.00,,,0.00,meteohub,2013-02-21 02:22:00,
2013-02-20 18:27:00,48.7,18.0,29.83,West,270,11.0,16.0,29,0.00,,,0.00,meteohub,2013-02-21 02:27:00,
2013-02-20 18:32:00,48.7,18.0,29.83,NW,315,11.0,15.0,29,0.00,,,0.00,meteohub,2013-02-21 02:32:00,
2013-02-20 18:37:00,48.7,17.1,29.83,West,270,15.0,15.0,28,0.00,,,0.00,meteohub,2013-02-21 02:37:00,
2013-02-20 18:42:00,48.7,17.1,29.83,West,270,8.0,15.0,28,0.00,,,0.00,meteohub,2013-02-21 02:42:00,
2013-02-20 18:47:00,48.6,16.9,29.84,SW,225,2.0,15.0,28,0.00,,,0.00,meteohub,2013-02-21 02:47:00,
2013-02-20 18:52:00,48.4,16.7,29.84,South,180,5.0,15.0,28,0.00,,,0.00,meteohub,2013-02-21 02:52:00,
2013-02-20 18:57:00,48.2,16.5,29.84,South,180,2.0,8.0,28,0.00,,,0.00,meteohub,2013-02-21 02:57:00,
2013-02-20 19:02:00,48.0,17.2,29.85,WNW,293,7.0,8.0,29,0.00,,,0.00,meteohub,2013-02-21 03:02:00,
2013-02-20 19:07:00,48.0,18.1,29.85,West,270,2.0,8.0,30,0.00,,,0.00,meteohub,2013-02-21 03:07:00,
2013-02-20 19:12:00,47.8,18.0,29.85,NW,315,5.0,8.0,30,0.00,,,0.00,meteohub,2013-02-21 03:12:00,
2013-02-20 19:17:00,47.7,17.8,29.85,West,270,6.0,7.0,30,0.00,,,0.00,meteohub,2013-02-21 03:17:00,
2013-02-20 19:22:00,47.7,17.8,29.85,NW,315,4.0,7.0,30,0.00,,,0.00,meteohub,2013-02-21 03:22:00,
2013-02-20 19:27:00,47.5,17.6,29.85,SW,225,7.0,8.0,30,0.00,,,0.00,meteohub,2013-02-21 03:27:00,
2013-02-20 19:32:00,47.7,17.8,29.85,West,270,5.0,8.0,30,0.00,,,0.00,meteohub,2013-02-21 03:32:00,
2013-02-20 19:37:00,47.7,17.8,29.85,West,270,8.0,8.0,30,0.00,,,0.00,meteohub,2013-02-21 03:37:00,
2013-02-20 19:42:00,47.5,16.9,29.85,West,270,4.0,8.0,29,0.00,,,0.00,meteohub,2013-02-21 03:42:00,
2013-02-20 19:47:00,47.5,16.9,29.85,West,270,6.0,8.0,29,0.00,,,0.00,meteohub,2013-02-21 03:47:00,
2013-02-20 19:52:00,47.3,16.7,29.85,West,270,8.0,8.0,29,0.00,,,0.00,meteohub,2013-02-21 03:52:00,
2013-02-20 19:57:00,47.3,16.7,29.85,SW,225,6.0,8.0,29,0.00,,,0.00,meteohub,2013-02-21 03:57:00,
2013-02-20 20:02:00,47.3,16.7,29.86,West,270,5.0,8.0,29,0.00,,,0.00,meteohub,2013-02-21 04:02:00,
2013-02-20 20:07:00,46.9,16.3,29.86,West,270,5.0,8.0,29,0.00,,,0.00,meteohub,2013-02-21 04:07:00,
2013-02-20 20:13:00,46.9,16.3,29.86,West,270,4.0,6.0,29,0.00,,,0.00,meteohub,2013-02-21 04:13:00,
2013-02-20 20:18:00,46.8,16.2,29.86,West,270,4.0,6.0,29,0.00,,,0.00,meteohub,2013-02-21 04:18:00,
2013-02-20 20:23:00,46.6,16.0,29.86,West,270,4.0,6.0,29,0.00,,,0.00,meteohub,2013-02-21 04:23:00,
2013-02-20 20:28:00,46.6,16.0,29.86,West,270,4.0,4.0,29,0.00,,,0.00,meteohub,2013-02-21 04:28:00,
2013-02-20 20:33:00,46.4,16.7,29.86,West,270,4.0,4.0,30,0.00,,,0.00,meteohub,2013-02-21 04:33:00,
2013-02-20 20:38:00,46.4,16.7,29.86,SW,225,4.0,7.0,30,0.00,,,0.00,meteohub,2013-02-21 04:38:00,
2013-02-20 20:43:00,46.4,16.7,29.86,West,270,5.0,7.0,30,0.00,,,0.00,meteohub,2013-02-21 04:43:00,
2013-02-20 20:48:00,46.2,14.0,29.87,West,270,4.0,5.0,27,0.00,,,0.00,meteohub,2013-02-21 04:48:00,
2013-02-20 20:54:00,46.0,14.0,29.87,West,270,6.0,6.0,27,0.00,,,0.00,meteohub,2013-02-21 04:54:00,
2013-02-20 20:59:00,46.0,14.0,29.87,West,270,5.0,6.0,27,0.00,,,0.00,meteohub,2013-02-21 04:59:00,
2013-02-20 21:00:00,46.2,14.0,29.87,West,270,4.0,6.0,27,0.00,,,0.00,meteohub,2013-02-21 05:00:00,
2013-02-20 21:01:00,46.2,14.0,29.87,West,270,4.0,7.0,27,0.00,,,0.00,meteohub,2013-02-21 05:01:00,
2013-02-20 21:04:00,46.2,14.0,29.88,West,270,4.0,7.0,27,0.00,,,0.00,meteohub,2013-02-21 05:04:00,
2013-02-20 21:09:00,46.2,14.0,29.88,West,270,6.0,7.0,27,0.00,,,0.00,meteohub,2013-02-21 05:09:00,
2013-02-20 21:14:00,46.4,16.7,29.88,NW,315,7.0,7.0,30,0.00,,,0.00,meteohub,2013-02-21 05:14:00,
2013-02-20 21:20:00,46.8,17.8,29.88,NW,315,5.0,9.0,31,0.00,,,0.00,meteohub,2013-02-21 05:20:00,
2013-02-20 21:25:00,46.8,16.9,29.88,West,270,4.0,10.0,30,0.00,,,0.00,meteohub,2013-02-21 05:25:00,
2013-02-20 21:30:00,46.8,16.9,29.88,West,270,4.0,10.0,30,0.00,,,0.00,meteohub,2013-02-21 05:30:00,
2013-02-20 21:35:00,46.8,16.9,29.88,NW,315,8.0,10.0,30,0.00,,,0.00,meteohub,2013-02-21 05:35:00,
2013-02-20 21:40:00,46.8,16.9,29.88,West,270,4.0,10.0,30,0.00,,,0.00,meteohub,2013-02-21 05:40:00,
2013-02-20 21:45:00,46.8,16.9,29.88,West,270,9.0,10.0,30,0.00,,,0.00,meteohub,2013-02-21 05:45:00,
2013-02-20 21:50:00,46.8,16.9,29.88,West,270,4.0,10.0,30,0.00,,,0.00,meteohub,2013-02-21 05:50:00,
2013-02-20 21:56:00,46.8,17.8,29.88,West,270,3.0,10.0,31,0.00,,,0.00,meteohub,2013-02-21 05:56:00,
2013-02-20 22:01:00,46.6,17.6,29.88,West,270,5.0,9.0,31,0.00,,,0.00,meteohub,2013-02-21 06:01:00,
2013-02-20 22:06:00,46.6,17.6,29.88,West,270,5.0,8.0,31,0.00,,,0.00,meteohub,2013-02-21 06:06:00,
2013-02-20 22:11:00,46.2,15.6,29.88,West,270,4.0,5.0,29,0.00,,,0.00,meteohub,2013-02-21 06:11:00,
2013-02-20 22:16:00,46.0,15.6,29.88,West,270,5.0,6.0,29,0.00,,,0.00,meteohub,2013-02-21 06:16:00,
2013-02-20 22:21:00,45.9,15.4,29.89,NW,315,6.0,6.0,29,0.00,,,0.00,meteohub,2013-02-21 06:21:00,
2013-02-20 22:27:00,45.7,15.3,29.88,West,270,6.0,8.0,29,0.00,,,0.00,meteohub,2013-02-21 06:27:00,
2013-02-20 22:32:00,45.5,15.1,29.88,West,270,6.0,8.0,29,0.00,,,0.00,meteohub,2013-02-21 06:32:00,
2013-02-20 22:37:00,45.5,14.4,29.88,NW,315,8.0,8.0,28,0.00,,,0.00,meteohub,2013-02-21 06:37:00,
2013-02-20 22:42:00,45.5,14.4,29.88,West,270,6.0,8.0,28,0.00,,,0.00,meteohub,2013-02-21 06:42:00,
2013-02-20 22:47:00,45.5,13.5,29.89,West,270,5.0,8.0,27,0.00,,,0.00,meteohub,2013-02-21 06:47:00,
2013-02-20 22:52:00,45.3,13.3,29.88,West,270,2.0,8.0,27,0.00,,,0.00,meteohub,2013-02-21 06:52:00,
2013-02-20 22:57:00,45.0,12.9,29.88,West,270,2.0,8.0,27,0.00,,,0.00,meteohub,2013-02-21 06:57:00,
2013-02-20 23:02:00,44.6,12.7,29.88,SW,225,5.0,6.0,27,0.00,,,0.00,meteohub,2013-02-21 07:02:00,
2013-02-20 23:07:00,44.4,14.2,29.89,West,270,4.0,5.0,29,0.00,,,0.00,meteohub,2013-02-21 07:07:00,
2013-02-20 23:12:00,44.2,14.0,29.89,SW,225,3.0,5.0,29,0.00,,,0.00,meteohub,2013-02-21 07:12:00,
2013-02-20 23:17:00,44.1,13.8,29.89,West,270,2.0,5.0,29,0.00,,,0.00,meteohub,2013-02-21 07:17:00,
2013-02-20 23:22:00,43.7,13.5,29.89,SW,225,4.0,4.0,29,0.00,,,0.00,meteohub,2013-02-21 07:22:00,
2013-02-20 23:27:00,44.1,15.3,29.88,West,270,4.0,4.0,31,0.00,,,0.00,meteohub,2013-02-21 07:27:00,
2013-02-20 23:32:00,44.1,16.2,29.88,West,270,5.0,5.0,32,0.00,,,0.00,meteohub,2013-02-21 07:32:00,
2013-02-20 23:37:00,44.2,16.2,29.89,West,270,4.0,5.0,32,0.00,,,0.00,meteohub,2013-02-21 07:37:00,
2013-02-20 23:42:00,44.2,16.9,29.89,West,270,5.0,5.0,33,0.00,,,0.00,meteohub,2013-02-21 07:42:00,
2013-02-20 23:47:00,44.2,16.9,29.89,West,270,3.0,5.0,33,0.00,,,0.00,meteohub,2013-02-21 07:47:00,
2013-02-20 23:52:00,44.2,16.9,29.89,West,270,3.0,5.0,33,0.00,,,0.00,meteohub,2013-02-21 07:52:00,
2013-02-20 23:57:00,44.2,16.9,29.89,West,270,3.0,5.0,33,0.00,,,0.00,meteohub,2013-02-21 07:57:00,